Flag for Norway Weather past 2 weeks in Sandnes, Norway

Now
52 °F

Passing clouds.


Feels Like: 47 °F
Forecast: 45 / 55 °F
Wind: 16 mph from North

Location: Stavanger / Sola

Current Time: Sep 22, 2014 at 2:29:32 AM

Latest Report: Sep 22, 2014 at 1:50 AM


Visibility: N/A

Pressure: 30.01 "Hg

Humidity: 72%

Dew point: 43 °F

Location of SandnesLocation

Historic Weather in Sandnes — Graph

°F

Sandnes temperature yesterday

Maximum temperature yesterday: 59 °F (at 11:20 AM)
Minimum temperature yesterday: 52 °F (at 10:50 PM)
Average temperature yesterday: 56 °F

Past Weeks' High & Low Weather Summary

 TemperatureHumidityPressure
High73 °F (Sep 16, 4:20 PM)100% (Sep 7, 1:50 AM)30.45 "Hg (Sep 7, 1:50 AM)
Low45 °F (Sep 18, 6:20 AM)31% (Sep 16, 4:50 PM)29.80 "Hg (Sep 7, 1:50 AM)
Average59 °F77%30.13 "Hg
* Reported Sep 7 12:20 AM — Sep 22 12:50 AM, Sandnes, Weather by CustomWeather, © 2014

Note: Actual official high and low records may vary slightly from our data, if they occured in-between our weather recording intervals... More about our weather records

Advertising

Sandnes weather history for previous 24 hours

 ConditionsComfort  
Time TempWeatherWind HumidityBarometerVisibility
12:50 AM
Sep 22
52 °FPassing clouds.16 mph67%30.01 "HgN/A
12:20 AM52 °FPassing clouds.18 mph67%30.01 "HgN/A
11:50 PM
Sep 21
52 °FPassing clouds.16 mph67%30.01 "HgN/A
11:20 PM52 °FPassing clouds.21 mph67%30.01 "HgN/A
10:50 PM52 °FPassing clouds.22 mph67%30.01 "HgN/A
10:20 PM54 °FPassing clouds.25 mph63%30.01 "HgN/A
9:50 PM54 °FPassing clouds.25 mph63%30.01 "HgN/A
9:20 PM54 °FPassing clouds.24 mph58%30.01 "HgN/A
8:50 PM54 °FPassing clouds.25 mph63%30.01 "HgN/A
8:20 PM55 °FPassing clouds.24 mph59%30.01 "HgN/A
7:50 PM55 °FPassing clouds.22 mph51%30.01 "HgN/A
7:20 PM55 °FPassing clouds.26 mph59%29.98 "HgN/A
6:50 PM55 °FPassing clouds.24 mph59%30.01 "HgN/A
6:20 PM55 °FScattered clouds.24 mph63%30.01 "HgN/A
5:50 PM57 °FScattered clouds.25 mph55%29.98 "HgN/A
5:20 PM57 °FPassing clouds.26 mph51%29.98 "HgN/A
4:50 PM57 °FScattered clouds.29 mph59%29.98 "HgN/A
4:20 PM57 °FScattered clouds.28 mph63%29.98 "HgN/A
3:50 PM59 °FPassing clouds.28 mph59%29.98 "HgN/A
3:20 PM59 °FPassing clouds.24 mph59%29.98 "HgN/A
2:50 PM59 °FPassing clouds.26 mph59%29.98 "HgN/A
2:20 PM59 °FScattered clouds.26 mph63%29.98 "HgN/A
1:50 PM59 °FScattered clouds.30 mph63%29.98 "HgN/A
1:20 PM59 °FScattered clouds.30 mph68%29.98 "HgN/A
12:50 PM59 °FScattered clouds.23 mph68%29.95 "HgN/A
12:20 PM59 °FScattered clouds.23 mph72%29.98 "HgN/A
11:50 AM59 °FPartly sunny.22 mph77%29.95 "HgN/A
11:20 AM59 °FScattered clouds.18 mph72%29.95 "HgN/A
10:50 AM57 °FScattered clouds.20 mph77%29.95 "HgN/A
10:20 AM57 °FScattered clouds.15 mph77%29.95 "HgN/A
9:50 AM57 °FScattered clouds.13 mph77%29.95 "HgN/A
9:20 AM55 °FScattered clouds.12 mph82%29.92 "HgN/A
8:50 AM55 °FScattered clouds.12 mph82%29.92 "HgN/A
8:20 AM55 °FScattered clouds.14 mph82%29.92 "HgN/A
7:50 AM55 °FPassing clouds.15 mph82%29.92 "HgN/A
7:20 AM55 °FPartly cloudy.12 mph82%29.92 "HgN/A
6:50 AM54 °FPartly cloudy.14 mph88%29.92 "HgN/A
6:20 AM54 °FPartly cloudy.13 mph88%29.92 "HgN/A
5:50 AM55 °FPartly cloudy.15 mph88%29.92 "HgN/A
4:50 AM54 °FPartly cloudy.12 mph94%29.92 "HgN/A
3:50 AM55 °FPassing clouds.12 mph88%29.95 "HgN/A
2:50 AM55 °FPassing clouds.12 mph82%29.95 "HgN/A
Weather by CustomWeather, © 2014

See weather overviewHow to use our weather pages